Back to catalog

QIANFAN-103

AliveCommunicationsPO
NORAD 66045·PAYLOAD·🇨🇳 China

Launched Oct 17, 2025 from Taiyuan Satellite Launch Center

Loading…

Next Passes (next 24 hours)

TLE

FreshSource: Space-Track

Epoch: Sep 14, 2026, 15:35 UTC

1 66045U 25233N   26257.64990213  .00000066  00000-0  83354-4 0  9991
2 66045  89.0053  34.1552 0001887  92.5025 267.6342 13.51020835 45260

Track QIANFAN-103 in real time with AllMySat

Download on the App Store